Home > Weather > Turku > Past weeks

Flag for Finland Weather for the Past 2 Weeks in Turku, Finland

Now
32 °F

Light snow. Low clouds.


Feels Like: 26 °F
Forecast: 25 / 33 °F
Wind: 7 mph from Southeast

Location: Turku Airport

Current Time: Feb 14, 2016 at 8:00:05 AM

Latest Report: Feb 14, 2016 at 7:20 AM


Visibility: N/A

Pressure: 29.50 "Hg

Humidity: 100%

Dew point: 32 °F

Location of TurkuLocation

Historic Weather in Turku — Graph

°F

Turku Temperature Yesterday

Maximum temperature yesterday: 34 °F (at 1:50 PM)
Minimum temperature yesterday: 27 °F (at 7:20 AM)
Average temperature yesterday: 30 °F

High & Low Weather Summary for the Past Weeks

 TemperatureHumidityPressure
High39 °F (Jan 30, 6:50 AM)100% (Jan 31, 8:20 PM)29.65 "Hg (Jan 31, 8:20 PM)
Low25 °F (Feb 2, 10:50 PM)65% (Feb 13, 1:50 PM)28.68 "Hg (Feb 2, 6:50 AM)
Average33 °F93%29.20 "Hg
* Reported Jan 30 6:50 AM — Feb 14 6:20 AM, Turku, Weather by CustomWeather, © 2016

Note: Actual official high and low records may vary slightly from our data, if they occured in-between our weather recording intervals... More about our weather records

Advertising

Turku Weather History for the Previous 24 Hours

 ConditionsComfort  
Time TempWeatherWind HumidityBarometerVisibility
6:20 AM
Sun, Feb 14
32 °FLight snow. Low clouds.7 mph100%29.50 "Hg5 mi
5:50 AM32 °FLight snow. Low clouds.8 mph100%29.50 "Hg4 mi
5:20 AM32 °FLight snow. Low clouds.8 mph100%29.50 "Hg3 mi
4:50 AM32 °FLight snow. Low clouds.7 mph100%29.50 "Hg4 mi
4:20 AM32 °FLight snow. Low clouds.9 mph100%29.50 "Hg4 mi
3:20 AM32 °FLight snow. Low clouds.7 mph100%29.53 "Hg6 mi
2:50 AM32 °FLight snow. Low clouds.9 mph100%29.53 "Hg2 mi
2:20 AM32 °FLight snow. Low clouds.7 mph100%29.53 "Hg1 mi
1:50 AM32 °FLight snow. Low clouds.9 mph100%29.56 "Hg4 mi
1:20 AM32 °FLight snow. Low clouds.8 mph93%29.56 "HgN/A
12:50 AM32 °FLight snow. Low clouds.8 mph93%29.56 "HgN/A
12:20 AM32 °FLow clouds.8 mph93%29.59 "HgN/A
11:50 PM
Sat, Feb 13
30 °FLight snow. Low clouds.8 mph93%29.59 "HgN/A
11:20 PM30 °FLow clouds.9 mph93%29.59 "HgN/A
10:50 PM30 °FLow clouds.9 mph93%29.59 "HgN/A
10:20 PM28 °FPassing clouds.7 mph93%29.62 "HgN/A
9:50 PM28 °FPassing clouds.8 mph86%29.62 "HgN/A
9:20 PM27 °FPassing clouds.7 mph93%29.62 "HgN/A
8:50 PM28 °FPassing clouds.7 mph86%29.62 "HgN/A
8:20 PM28 °FPassing clouds.6 mph86%29.65 "HgN/A
7:50 PM30 °FPartly cloudy.6 mph80%29.65 "HgN/A
7:20 PM30 °FOvercast.5 mph80%29.65 "HgN/A
6:50 PM30 °FOvercast.6 mph80%29.65 "HgN/A
6:20 PM30 °FOvercast.5 mph80%29.65 "HgN/A
5:50 PM30 °FOvercast.7 mph80%29.62 "HgN/A
5:20 PM30 °FOvercast.6 mph80%29.62 "HgN/A
4:50 PM32 °FOvercast.6 mph75%29.62 "HgN/A
4:20 PM32 °FOvercast.6 mph69%29.62 "HgN/A
3:50 PM32 °FPartly sunny.6 mph69%29.62 "HgN/A
3:20 PM32 °FPassing clouds.7 mph69%29.62 "HgN/A
2:50 PM34 °FPassing clouds.9 mph65%29.62 "HgN/A
2:20 PM34 °FPartly sunny.7 mph65%29.62 "HgN/A
1:50 PM34 °FPartly sunny.8 mph65%29.59 "HgN/A
1:20 PM32 °FPartly sunny.7 mph69%29.59 "HgN/A
12:50 PM32 °FPartly sunny.7 mph80%29.59 "HgN/A
12:20 PM32 °FLight snow. Partly sunny.7 mph80%29.59 "HgN/A
11:50 AM30 °FPassing clouds.3 mph86%29.56 "HgN/A
11:20 AM30 °FLight snow. Passing clouds.5 mph86%29.56 "HgN/A
10:50 AM30 °FLight snow. Partly sunny.5 mph86%29.56 "HgN/A
10:20 AM30 °FPassing clouds.3 mph86%29.53 "HgN/A
9:50 AM28 °FPartly sunny.2 mph86%29.53 "HgN/A
9:20 AM27 °FPartly sunny.3 mph93%29.53 "HgN/A
8:50 AM27 °FPartly sunny.2 mph93%29.50 "HgN/A
8:20 AM27 °FPartly sunny.2 mph93%29.50 "HgN/A
Weather by CustomWeather, © 2016

See weather overviewHow to use our weather pages